Regional Weather Roundup
Issued by NWS Cleveland, OH

Home | Current Version | Previous Version | Text Only | Print | Product List | Glossary On
Versions: 1 2 3 4 5 6 7 8 9 10 11 12 13 14 15 16 17 18 19 20 21 22 23 24 25 26 27 28 29 30 31 32 33 34 35 36 37 38 39 40 41 42 43 44 45 46 47 48 49 50
000
ASUS41 KCLE 261400
RWRCLE
OHIO REGIONAL WEATHER ROUNDUP
NATIONAL WEATHER SERVICE WILMINGTON, OH
1000 AM EDT TUE MAY 26 2015

NOTE: "FAIR" INDICATES FEW OR NO CLOUDS BELOW 12,000 FEET WITH NO
SIGNIFICANT WEATHER AND/OR OBSTRUCTIONS TO VISIBILITY.

OHZ001>008-015>018-024>027-034-035-043-044-261500-
   NORTHWEST OHIO

CITY           SKY/WX    TMP DP  RH WIND       PRES   REMARKS
DEFIANCE       CLOUDY    74  65  73 S12       30.06F
FINDLAY        SUNNY     76  64  66 S16       30.08F
TOLEDO EXPRESS MOSUNNY   73  64  73 SW9       30.07F
TOLEDO EXEC    MOSUNNY   75  63  66 SW15      30.08F
LIMA           SUNNY     75  64  68 SW13      30.09F
$$

OHZ009>014-019>023-028>033-038-089-261500-
   NORTHEAST OHIO

CITY           SKY/WX    TMP DP  RH WIND       PRES   REMARKS
CLE-HOPKINS    PTSUNNY   74  64  71 S12       30.13F
CLE-LAKEFRONT  CLOUDY    74  64  71 S10       30.10F
CUY CO. ARPT   CLOUDY    75  68  78 SW9       30.13S
LORAIN-ELYRIA  PTSUNNY   75  63  66 W18       30.11F
ASHTABULA      CLOUDY    72  63  73 SW12G18   30.15R
AKRON-CANTON   CLOUDY    73  63  70 SW15G21   30.15F
WOOSTER        NOT AVBL
MANSFIELD      MOSUNNY   71  63  75 S14G22    30.14S
YOUNGSTOWN     CLOUDY    73  64  73 S10       30.16F
$$

OHZ042-051>053-060>062-070>072-077>081-261500-
  SOUTHWEST OHIO

CITY           SKY/WX    TMP DP  RH WIND       PRES   REMARKS
CINC-COVINGTON MOSUNNY   74  65  73 S13       30.11F
CINC-LUNKEN    CLOUDY    73  66  78 S10       30.12F
HAMILTON       SUNNY     77  65  66 VRB6      30.12F
DAYTON         NOT AVBL
WRIGHT-PAT AFB NOT AVBL
DAYTON GENERAL PTSUNNY   73  65  75 S13       30.12F
WILMINGTON     MOSUNNY   74  63  68 SW14G22   30.14S
$$

OHZ036-037-039>041-045>050-054>059-063>069-073>076-082>088-261500-
  CENTRAL AND SOUTHEAST OHIO

CITY           SKY/WX    TMP DP  RH WIND       PRES   REMARKS
COLUMBUS       CLOUDY    73  65  75 S9        30.15S
OSU AIRPORT    PTSUNNY   72  64  76 S12       30.14F
BOLTON FIELD   PTSUNNY   70  64  83 S13G21    30.16S
RICKENBACK AFB NOT AVBL
NEWARK         CLOUDY    70  65  84 S9        30.15F
MARION         PTSUNNY   73  63  70 S16G23    30.13S
LANCASTER      CLOUDY    71  66  84 SE6       30.17S
ZANESVILLE     CLOUDY    71  65  81 S9        30.18S
NEW PHILLY     CLOUDY    73  67  81 CALM      30.18S
$$


USA.gov is the U.S. government's official web portal to all federal, state and local government web resources and services.